CAPE
0 7 412 756 762 528 148 138 63 43 36 44 70 159 191 402 507 196 318 653 338 606 815 1129 1604 1669 1857 1920 1907 2034 2085 2101 2146 2255 2210 2229 2063 1893 1911 2071 1849 1715 1591 1466 1339 1277 1053 920 1150
0 517 757 1063 608 601 262 54 49 34 4 0 14 237 56 73 0 72 74 766 571 461 922 1147 1928 1854 1842 1737 1949 2021 2155 2274 2196 2208 2152 2218 2498 2091 2067 1952 1947 1931 1752 1500 1315 1133 1097 1086 992
37 348 691 631 387 226 41 44 30 1 4 152 156 239 32 0 6 14 384 601 713 805 1172 1407 1858 1463 1367 1572 1771 2050 2001 2058 2063 1630 1738 1843 2068 1996 1994 1851 1838 1816 1763 1023 1000 1016 984 925 997
200 477 535 555 221 43 53 7 0 36 96 246 165 21 4 89 8 2 455 519 838 877 690 1426 1670 1420 1385 1647 1705 2050 2092 1492 1525 1687 1790 1969 1973 1967 1798 1605 1358 1324 1216 1136 975 662 993 862 746
233 680 672 465 91 90 43 4 144 138 210 310 228 114 2 115 5 7 44 75 769 722 651 844 1842 1544 1610 1329 1613 1935 1750 1765 1834 1895 1827 1905 1767 1527 1216 955 753 695 670 781 745 996 433 790 462
711 121 498 249 125 50 39 35 189 224 207 203 196 30 37 3 9 16 22 68 23 197 789 717 1603 1527 1574 1210 1505 1730 1598 1497 1522 1454 1381 1296 1227 1211 1274 1342 1438 1434 1422 1643 1262 230 262 361 119
420 123 368 196 28 84 45 44 99 15 236 37 31 3 2 11 13 14 3 70 5 35 189 856 866 1055 958 1162 1350 1511 1493 1496 1423 1445 1356 1343 1603 1713 1679 1637 1559 1531 1577 1739 675 740 784 307 252
654 254 122 123 104 118 171 158 92 30 258 97 59 1 0 2 12 1 12 0 0 35 316 971 922 960 925 796 1046 1150 1454 1447 1394 1486 1524 1534 1774 1814 1740 1677 1513 1664 1697 2228 1899 1341 1102 983 1065
408 39 18 186 328 383 452 303 52 283 323 268 285 17 0 0 0 0 4 0 0 103 507 250 353 791 1071 594 799 1264 1439 1497 1555 1463 1603 2184 2261 2145 1856 2420 2147 2117 2373 2741 2435 1755 1337 1595 1561
53 78 19 145 100 430 493 412 266 486 379 150 54 0 0 0 0 0 1 0 0 6 26 0 64 271 456 574 1272 1675 1417 1741 2457 1792 2203 2789 2647 2157 1271 1861 2924 2865 2751 2860 3045 2489 1526 1273 1225
28 101 7 30 43 340 506 515 339 373 352 137 8 0 0 0 0 0 4 0 0 0 5 1 167 343 517 1274 2024 1799 1415 2432 2331 1962 2909 2642 2696 2594 1678 2173 1499 139 1220 1085 2029 2264 1574 1708 1835
51 10 0 16 287 353 417 650 535 281 245 196 23 0 0 0 0 0 1 0 0 0 3 8 517 327 1304 700 1193 1754 1130 2480 2265 1246 1025 2670 1119 785 974 990 212 255 906 60 843 1919 2374 1741 1759
50 7 2 16 136 415 282 598 432 265 313 337 39 0 0 0 0 0 0 0 0 2 11 111 1017 440 1652 392 723 1596 1629 1974 1686 8 740 1340 1431 2818 1139 932 1152 908 842 834 1274 1335 698 1165 1869
53 48 3 44 367 53 185 246 500 601 459 452 136 0 0 0 0 0 0 0 0 0 48 206 1194 2189 1955 2576 2353 1505 1897 2055 1366 2049 2815 3178 1519 2599 3038 2317 1657 1791 2557 1476 2065 1410 949 1147 1710
70 78 51 19 300 247 179 117 16 99 608 478 321 69 1 2 0 0 0 0 0 0 120 947 1121 1496 2660 1369 2510 3189 2230 1657 1924 2717 3920 3521 2785 2788 4271 2708 2271 2694 3955 3604 3342 3087 1969 1860 1242
1 297 129 131 81 84 100 198 82 108 179 530 406 233 21 2 0 0 0 0 0 0 895 933 552 1113 2011 2341 2676 2634 1906 2235 1866 2191 3129 2784 3070 2708 3998 2413 2386 2338 2415 1972 1967 2109 1533 1478 2259
12 36 307 78 72 50 58 68 70 196 307 636 574 468 283 12 0 0 0 0 0 36 1057 1250 1503 1456 1737 2805 2197 2889 2528 2386 2492 1815 2318 3549 2643 3465 3877 2743 3343 2694 1225 1459 2159 2153 2320 2527 2099
11 93 275 52 17 33 69 11 3 309 414 411 559 777 641 109 1 1 0 0 0 86 1089 1601 1719 2295 2758 2284 3722 2675 2427 2575 2200 1833 2275 2394 2453 2856 3728 2596 3664 3107 1468 1481 2298 3279 2893 2849 1813
6 34 133 46 11 48 30 73 23 351 534 672 503 675 779 333 21 66 6 0 0 23 1036 1988 2522 3299 2673 2917 2010 1792 1732 2375 2436 2595 2757 2440 2301 2293 3419 2739 1830 2375 1980 2715 2365 2362 1704 2080 2971
7 32 153 155 53 61 139 135 185 256 445 583 793 790 487 449 161 208 234 0 0 74 1069 2188 2650 2740 3004 2317 2595 2213 2479 2209 2391 2247 2930 2429 2363 2735 3675 4082 3559 3578 3356 3475 1777 1687 1883 639 1542
16 39 127 84 83 69 224 362 180 481 447 633 627 917 807 590 386 438 436 67 5 66 947 1926 2623 2665 2720 3218 2923 2495 3148 3404 2373 2568 2533 2726 2990 3724 3808 3916 4115 3629 2865 2578 1951 1863 625 721 262
17 47 10 117 29 89 29 77 820 745 409 420 683 836 936 862 815 742 644 582 102 83 595 1619 2289 2867 2472 3516 2806 3151 2843 2572 2891 2230 2651 2709 3068 3166 3590 3312 4370 3789 3369 3408 2246 1266 1791 731 393
11 32 4 11 50 58 49 45 57 276 542 361 376 926 886 1073 923 673 620 819 525 19 70 1148 1930 3018 2115 3086 3847 3230 3847 2857 2607 2502 3726 2990 4015 3488 3067 4363 4509 3518 3414 3542 3061 1992 1817 1034 1019
3 11 33 40 63 81 66 80 113 297 317 461 413 703 930 1030 1111 999 964 947 778 218 84 678 1690 3067 2763 2894 3328 3685 3176 3423 2692 2546 2322 2844 2711 3399 3812 3696 4354 4464 4272 4113 2919 2414 1801 915 489
3 40 62 106 92 55 78 66 118 45 7 116 565 649 792 1265 1214 1248 1075 1076 946 568 160 390 1794 2427 2636 2613 2899 3590 3660 4040 3786 3620 2484 2233 2256 2512 4167 4695 4579 4563 4726 4477 3788 3076 2272 1699 1075
32 49 91 88 87 62 34 38 124 88 53 165 342 461 719 641 1012 1190 1191 1201 1111 1007 418 481 1988 2226 2475 2774 2489 3224 3721 3102 3199 3546 2789 3432 2699 3395 4187 4421 4455 4606 4598 4254 4470 3509 2627 2195 1798
1 113 33 69 113 100 59 47 99 151 18 20 214 505 302 537 608 1183 1247 1269 1252 1073 1158 591 2062 2375 2760 2591 2586 2834 3253 3437 3001 3818 3960 3161 3780 3681 4060 3983 4437 4427 4459 4481 4513 3919 3411 2820 2542
0 4 50 83 123 53 61 96 17 166 116 99 30 39 136 83 5 318 1299 1434 1320 1174 1174 1225 1951 2439 2600 2712 2797 2937 2588 2981 3636 3951 4204 3137 3894 3880 3834 3702 3987 4247 4554 4522 4574 4283 4240 3530 3299
0 5 28 77 124 85 105 99 89 65 0 73 66 148 26 20 86 734 1141 1579 1445 1208 1030 1124 1526 2368 2694 2722 2933 3024 2994 2735 2849 3399 4298 2917 3906 4295 4484 4069 4309 4373 4381 4514 4714 4468 4227 3943 3863
0 9 16 83 90 69 110 76 34 11 6 87 94 167 0 0 10 797 1216 1684 1570 1380 1134 1099 1116 2237 2298 2532 2753 2874 3066 2776 2418 2885 3697 4010 3571 4646 4053 4453 4259 4456 4347 4464 4532 4202 3202 3537 3821
CIN
0 -17 -3 0 0 -3 -8 -16 -2 -2 0 -1 -54 -28 -50 -21 -8 -42 -12 -2 -9 -6 -10 0 0 0 0 0 0 0 0 0 0 0 0 0 0 -2 0 0 0 0 0 0 0 0 -1 -8 -1
0 -1 -3 0 0 -1 -3 -12 -2 -1 -6 0 -8 -7 -74 -66 0 -58 -32 -5 -10 -3 -2 0 0 0 0 0 0 0 0 0 0 0 0 0 0 0 0 0 0 0 0 0 0 0 -1 -5 -7
-55 0 -1 -2 -18 -6 -5 -1 -4 0 -1 -9 -21 -9 -66 0 -1 -24 -9 -18 -10 -7 -5 -1 0 0 0 -2 0 0 0 0 0 0 0 0 0 0 0 0 0 0 0 -10 -14 -15 -14 -10 -12
-51 -3 -3 -3 -16 -1 -64 -5 0 -3 -12 -10 -27 -62 0 -29 0 -1 -12 -10 -26 -1 -8 0 0 0 0 0 0 0 0 -3 0 0 0 0 0 0 0 -1 -2 -4 -11 -17 -27 -31 -18 -20 -28
-26 -6 -2 -37 -11 -21 -24 -2 -4 -1 -7 -3 -18 -30 -21 -24 -1 -1 -17 -26 -10 -1 -20 -4 0 0 0 0 0 0 0 0 0 -1 -3 -1 -6 -15 -27 -37 -45 -48 -48 -23 -20 -5 -21 -13 -46
-18 -51 -14 -26 -15 -6 -1 -1 -1 -1 -1 -4 -10 -57 -62 -1 0 -1 0 -7 -11 -16 -4 -3 0 0 0 -8 0 0 0 -16 -17 -38 -34 -33 -43 -39 -33 -25 -23 -13 -12 0 -5 -36 -13 -14 -66
-34 -66 -39 -12 0 -21 -2 -4 -5 -22 -2 -23 -46 -29 0 0 -1 0 -1 -21 -4 -46 -51 -2 -8 -3 -8 -10 -6 -2 -14 -23 -35 -49 -44 -49 -37 -29 -27 -23 -29 -22 -26 -15 -58 -35 -12 -22 -57
-12 -14 -19 -31 -15 -15 -9 -31 -42 -45 -4 -6 -18 -2 0 0 -2 0 -2 -1 0 -28 -9 -1 -11 -3 -4 -31 -36 -37 -31 -31 -53 -50 -51 -51 -46 -37 -33 -30 -35 -34 -33 -12 -19 -40 -42 -34 -34
-12 -6 -8 -31 -14 -2 -1 -1 -36 -18 -2 -3 -7 -26 0 0 0 -1 -1 0 0 -11 -2 -11 -32 -9 -4 -33 -51 -42 -34 -31 -34 -40 -55 -43 -20 -28 -35 -15 -28 -29 -21 -31 -32 -49 -66 -54 -54
-150 -50 -10 -48 -66 -7 -18 -24 -5 -5 -1 -10 -32 0 0 0 0 0 0 0 0 -1 -12 0 -47 -16 -26 -5 -57 -21 -27 -31 -16 -39 -65 -41 -24 -79 -30 -52 -38 -20 -23 -10 -13 -23 -46 -58 -76
-200 -22 -23 -7 -52 -13 -3 -1 -5 -1 -6 -2 -103 -23 0 0 0 0 -1 0 0 0 -1 -1 -2 -4 -23 -27 -14 -32 -60 -6 -5 -43 -54 -20 -13 -23 -25 -62 -27 -32 -32 -64 -11 -20 -38 -86 -103
-44 -15 -4 -53 -3 -36 -4 -5 -8 -9 -5 -4 -82 0 0 0 0 0 0 0 0 0 -1 0 -4 -18 -10 -64 -21 -5 -46 -2 -18 -15 -21 -72 -105 -199 -33 -242 -8 -129 -124 -32 -12 -63 -23 -62 -121
0 -13 -20 -5 -34 -20 -9 -7 -24 -12 -57 -39 -82 0 0 0 0 0 0 0 0 -1 -1 -23 -11 -46 -26 -2 -115 -60 -31 -19 -26 -184 -30 -76 -131 -94 -36 -234 -225 -60 -60 -10 -38 -70 -37 -62 -54
-8 -8 -9 -9 -14 -121 -100 -28 -23 -5 -18 -2 -21 0 0 0 0 0 0 0 0 0 -27 -24 0 -4 -13 -6 -5 -53 -31 -10 -34 -22 -6 -11 -129 -106 -67 -90 -70 -98 -78 -37 -95 -28 -7 -186 -124
-6 -50 -53 -1 -21 -23 -40 -25 -4 -5 -1 -1 -2 -44 0 -1 0 0 0 0 0 0 -11 0 -1 -1 -4 -11 -16 -9 -15 -7 -26 -10 -2 -16 -33 -25 -29 -31 -25 -29 -36 -32 -30 -20 -120 -92 -60
0 -36 -112 -63 -69 -62 -139 -21 -61 -73 -5 -4 -1 -2 -64 -1 0 0 0 0 0 0 -8 -2 -9 -5 -3 -15 -12 -17 -31 -12 -20 -13 -10 -8 -10 -79 -45 -24 -19 -19 -38 -46 -34 -29 -23 -51 -35
-1 -1 -75 -180 -19 -140 -9 -86 -5 -14 -8 -1 -2 -4 -1 -101 0 0 0 0 0 -40 -12 -4 -18 -1 -2 -5 -20 -12 -8 -31 -13 -20 -15 -24 -3 -5 -29 -17 -7 -23 -70 -66 -29 -16 -22 -21 -33
-1 -1 -13 -19 -2 -36 -66 -6 -14 -13 -1 -1 -1 -3 -1 -16 -1 -23 0 0 0 -91 -6 -5 -5 -9 -12 -12 -4 -6 -9 -24 -8 -39 -27 -25 -15 -8 -22 -17 -10 -24 -72 -79 -40 -37 -24 -17 -43
-5 -11 -8 -81 -145 -178 -124 -66 -74 -11 -3 -19 -16 -2 -1 -8 -72 -57 -35 0 0 -44 -6 -1 -5 -6 -6 -3 -12 -27 -13 -9 -24 -21 -23 -5 -7 -5 -11 -22 -67 -44 -58 -14 -15 -24 -39 -42 -46
-1 -2 -1 -61 -48 -96 -156 -60 -206 -30 -18 -10 -19 0 -17 -12 -24 -37 -43 0 0 -110 -4 -3 -3 -7 -3 -11 -21 -21 -22 -10 -23 -33 -9 -2 -1 -47 -7 -28 -15 -17 -10 -4 -69 -71 -40 -102 -110
-1 -1 -54 -47 -22 -82 -178 -74 -97 -43 -57 -4 -6 -4 -2 -27 -36 -39 -49 -123 -172 -156 -35 -2 -4 -6 -12 -5 -15 -30 -40 -19 -27 -23 -11 -2 -1 -6 -7 -5 -6 -16 -24 -27 -56 -91 -153 -124 -199
0 -1 -5 -1 -12 -7 -8 -8 -68 -11 -9 -4 -2 -4 -4 -25 -27 -35 -65 -69 -164 -170 -78 -12 -4 -5 -16 -11 -6 -11 -12 -9 -7 -27 -13 -12 -3 0 -1 -12 -4 -8 -19 -16 -46 -134 -122 -168 -203
-4 -6 -5 -1 -2 -1 -3 -2 -25 -8 -15 -9 -12 -3 -3 -22 -31 -58 -79 -52 -60 -181 -188 -30 -8 -2 -15 -12 -4 -9 -8 -9 -12 -26 -17 -25 -3 -3 -5 -3 -3 -18 -11 -13 -11 -89 -127 -189 -170
-1 -3 -5 -21 -2 0 -2 -2 -33 -1 -26 -5 -10 -2 -2 -14 -21 -26 -42 -44 -51 -118 -187 -75 -13 -4 -6 -15 -9 -10 -20 -26 -15 -35 -37 -13 -23 -7 -1 -2 -1 -11 -5 -2 -20 -62 -131 -264 -358
-3 -1 -2 0 0 -1 -1 -1 -5 -60 -31 -2 -9 -2 -6 -6 -5 -7 -44 -65 -70 -92 -184 -128 -11 -3 -4 -9 -7 -5 -9 -4 -20 -20 -25 -24 -19 -31 -13 -3 -1 -5 -4 -3 -4 -26 -101 -180 -270
-1 0 -1 -1 -1 -1 -9 -2 0 -48 -6 -5 -3 -5 -2 -1 -3 -6 -24 -61 -68 -48 -150 -137 -18 -9 -3 -1 -11 -5 -10 -12 -12 -11 -19 -12 -19 -22 -44 -14 -4 -1 -3 -5 -2 -10 -87 -150 -201
0 0 -6 -1 -1 -1 -2 -2 -9 -11 -75 -22 -1 -23 -67 -13 -5 -19 -24 -55 -86 -85 -40 -131 -29 -17 -1 0 -3 -6 -12 -18 -9 -12 -21 -25 -21 -57 -40 -32 -3 -2 -1 -6 -3 -5 -19 -92 -123
0 -27 -2 0 -1 -5 -9 -4 -25 -70 -7 -19 -28 -21 -8 -6 -8 -9 -16 -56 -88 -102 -52 -30 -22 -28 -19 0 -2 -2 -7 -19 -18 -14 -15 -36 -12 -6 -39 -32 -7 -4 -3 -2 -6 -14 -15 -45 -67
0 -2 -5 -3 0 0 -14 -1 -44 -83 0 0 -1 -9 -27 -27 -21 -15 -7 -29 -61 -81 -78 -35 -12 -23 -14 -7 -2 -3 -2 -4 -24 -18 -4 -32 -21 -17 -7 -15 -6 -5 -4 -5 -4 -5 -8 -30 -41
0 -1 -1 0 -8 -1 0 -2 -46 -94 -9 0 -12 -5 -1 0 -163 -35 -16 -20 -44 -49 -60 -49 -38 -17 -31 -20 -7 -4 -2 -1 -27 -20 -5 -7 -20 -4 -19 -3 -6 -3 -7 -7 -6 -18 -58 -58 -46
Wind_Speed
nan nan 17 21 19 14 8 11 nan nan nan nan nan 14 16 14 4 7 19 17 21 18 17 13 13 14 11 8 10 10 10 8 6 7 8 7 7 9 9 9 11 10 10 10 11 9 6 5 4
nan 7 14 16 19 6 10 nan nan nan nan nan nan 16 nan nan nan nan nan 18 19 18 16 13 15 16 14 9 10 12 12 8 5 4 3 4 7 7 10 10 7 3 4 5 7 6 4 6 7
nan 4 12 12 16 7 nan nan nan nan nan 12 6 12 nan nan nan nan 18 20 17 18 14 14 16 16 13 9 8 12 10 5 2 2 4 3 7 8 8 10 7 2 6 7 6 5 5 6 8
10 9 10 12 6 nan nan nan nan nan nan 18 15 nan nan nan nan nan 25 21 19 18 15 14 14 17 11 11 11 9 9 6 7 7 8 10 10 10 13 12 11 8 5 3 3 2 4 7 8
13 10 12 13 nan nan nan nan 13 17 14 9 19 15 nan 19 nan nan nan nan 22 15 15 14 15 16 13 11 10 8 8 6 7 8 12 13 15 17 20 18 19 17 15 10 3 2 6 8 10
13 12 8 8 18 nan nan nan 18 13 13 18 19 nan nan nan nan nan nan nan nan 16 14 17 15 15 15 13 12 9 7 8 7 13 15 17 20 26 32 25 24 22 18 12 9 4 4 10 10
16 21 17 9 nan nan nan nan nan nan 11 nan nan nan nan nan nan nan nan nan nan nan 17 19 17 16 15 15 14 11 10 11 12 18 18 22 26 30 35 34 32 27 27 24 24 21 23 18 16
13 7 7 9 15 14 19 10 nan nan 10 nan nan nan nan nan nan nan nan nan nan nan 21 19 17 16 19 20 19 19 15 12 21 22 26 28 28 29 32 36 40 40 41 39 32 23 24 25 24
18 nan nan 16 10 18 18 16 nan 10 8 9 8 nan nan nan nan nan nan nan nan 16 17 16 17 18 18 19 24 32 38 28 28 31 31 27 26 25 21 22 28 34 40 40 36 30 27 27 28
nan nan nan 5 9 9 13 9 15 8 13 12 nan nan nan nan nan nan nan nan nan nan nan nan nan 13 19 24 27 36 36 29 31 31 28 24 25 27 16 23 24 24 28 37 28 26 24 24 28
nan 5 nan nan nan 9 15 15 13 14 8 18 nan nan nan nan nan nan nan nan nan nan nan nan 10 10 20 17 22 23 29 27 23 25 28 24 21 21 20 18 22 32 26 30 32 29 26 33 27
nan nan nan nan 24 17 11 20 9 12 16 8 nan nan nan nan nan nan nan nan nan nan nan nan 3 11 20 16 21 18 23 21 21 22 37 27 19 9 14 21 24 25 13 nan 28 30 27 28 30
nan nan nan nan 22 29 39 11 11 17 20 2 nan nan nan nan nan nan nan nan nan nan nan 6 2 14 17 20 18 17 23 16 13 nan 30 25 20 23 14 24 22 23 21 23 25 22 21 21 16
nan nan nan nan 11 nan 10 19 20 17 17 16 16 nan nan nan nan nan nan nan nan nan nan 6 5 10 12 16 18 18 15 17 15 16 21 18 22 20 21 21 21 16 13 18 17 15 16 13 20
nan nan nan nan 26 18 10 12 nan nan 21 19 15 nan nan nan nan nan nan nan nan nan 8 7 1 6 10 14 20 20 13 11 8 16 17 16 13 18 20 15 15 12 13 12 10 13 12 13 13
nan 21 9 22 nan nan 38 32 nan 28 14 17 13 11 nan nan nan nan nan nan nan nan 9 9 4 4 6 12 17 18 18 12 8 11 14 13 10 17 16 9 8 11 6 8 5 7 8 8 6
nan nan 19 nan nan nan nan nan nan 22 7 15 15 8 7 nan nan nan nan nan nan nan 9 8 1 5 6 10 14 13 17 16 11 7 8 12 12 13 14 5 7 7 4 4 3 6 3 4 5
nan nan 42 nan nan nan nan nan nan 21 14 11 14 17 12 16 nan nan nan nan nan nan 8 4 2 7 10 11 14 11 13 15 10 7 7 14 10 10 9 5 6 5 4 1 3 3 3 2 1
nan nan 22 nan nan nan nan nan nan 25 20 16 14 13 14 17 nan nan nan nan nan nan 6 1 3 5 10 10 11 9 11 10 9 10 7 6 5 6 7 3 4 4 2 4 5 6 4 2 3
nan nan 31 19 nan nan 29 33 39 38 30 33 24 17 16 18 16 15 12 nan nan nan 7 4 4 3 5 8 12 9 10 10 11 9 4 2 4 10 7 12 5 6 8 9 14 16 16 12 9
nan nan 32 nan nan nan 31 35 34 25 24 28 27 21 17 17 16 14 13 nan nan nan 8 5 5 6 4 5 11 15 14 14 13 7 5 3 6 6 5 7 7 10 8 10 16 16 14 17 17
nan nan nan 21 nan nan nan nan 24 23 15 18 28 23 19 18 16 14 15 13 12 nan 9 6 6 9 2 7 9 10 11 10 9 4 5 4 5 8 4 5 4 8 7 9 13 15 19 17 18
nan nan nan nan nan nan nan nan nan 19 19 6 14 24 22 19 18 20 20 17 13 nan nan 7 7 8 4 3 8 10 13 9 7 9 6 5 6 9 3 3 4 3 3 6 11 13 18 22 26
nan nan nan nan nan nan nan nan 21 30 31 29 23 21 21 19 19 21 21 20 17 14 nan 10 8 8 6 3 6 8 8 13 10 10 9 6 5 7 3 3 4 1 4 6 9 13 17 21 25
nan nan nan 7 nan nan nan nan 19 nan nan 3 27 22 22 24 18 17 21 20 18 17 15 11 11 8 7 5 6 8 8 11 15 11 7 5 3 2 3 3 2 3 4 5 9 11 18 19 20
nan nan nan nan nan nan nan nan 11 nan nan 2 12 13 26 12 18 18 18 19 20 17 17 11 14 11 9 7 7 9 12 14 15 13 12 11 9 9 8 4 2 2 3 5 7 12 15 16 19
nan 19 nan nan 3 11 nan nan nan 40 nan nan 25 29 28 31 21 21 20 20 22 21 20 16 16 13 12 6 10 10 10 11 13 13 13 16 13 14 10 7 4 2 1 3 8 8 8 11 14
nan nan nan nan 20 nan nan nan nan 36 27 nan nan nan 26 nan nan 21 22 21 20 24 20 23 18 15 14 9 9 12 10 11 14 14 14 12 13 15 12 9 5 3 1 1 4 4 2 5 9
nan nan nan nan 18 nan 13 nan nan nan nan nan nan 29 nan nan nan 22 30 21 20 22 21 25 19 16 14 12 11 12 12 10 12 14 15 13 15 15 12 10 7 6 4 2 2 8 3 1 5
nan nan nan nan nan nan 21 nan nan nan nan nan nan 44 nan nan nan 36 25 32 22 20 20 23 22 14 12 15 13 12 12 11 11 12 13 15 13 14 11 8 6 6 6 5 4 2 6 3 2
Wind_Direction
nan nan 99 130 142 143 156 186 nan nan nan nan nan 236 240 209 190 348 14 333 345 340 353 352 356 349 344 336 344 341 333 323 301 295 258 257 296 321 323 324 284 260 242 231 227 221 195 170 156
nan 100 139 142 140 180 215 nan nan nan nan nan nan 249 nan nan nan nan nan 317 340 350 354 343 349 349 346 343 349 342 338 335 323 310 228 293 314 317 314 332 334 291 248 208 206 212 194 150 128
nan 117 153 164 143 218 nan nan nan nan nan 265 250 236 nan nan nan nan 323 332 337 345 340 348 352 353 350 342 355 349 343 331 351 348 359 12 360 359 359 4 9 74 143 159 163 170 180 146 112
116 182 190 150 115 nan nan nan nan nan nan 252 268 nan nan nan nan nan 324 339 349 347 334 352 351 2 347 348 348 348 1 32 51 63 67 45 33 35 27 24 42 67 109 138 143 139 146 151 120
102 136 103 109 nan nan nan nan 258 242 247 251 278 278 nan 295 nan nan nan nan 347 338 348 352 357 5 357 0 356 9 17 48 71 76 67 60 56 46 42 55 69 60 64 66 73 211 169 145 138
139 155 130 152 263 nan nan nan 247 243 244 257 274 nan nan nan nan nan nan nan nan 347 346 3 3 8 8 7 10 24 27 56 70 71 73 72 62 57 55 67 71 64 66 68 57 69 152 120 120
52 149 135 232 nan nan nan nan nan nan 270 nan nan nan nan nan nan nan nan nan nan nan 3 12 20 23 20 24 29 38 52 61 72 80 78 75 66 64 62 69 70 76 73 78 85 86 95 105 92
131 351 145 221 282 263 244 231 nan nan 296 nan nan nan nan nan nan nan nan nan nan nan 7 9 31 35 38 46 46 48 45 61 77 82 79 76 68 66 67 74 82 88 82 79 78 86 93 104 99
166 nan nan 171 197 255 271 266 nan 290 293 281 284 nan nan nan nan nan nan nan nan 28 2 14 31 50 52 61 62 66 61 89 111 102 81 72 71 73 70 81 79 84 86 82 87 83 80 72 65
nan nan nan 305 194 233 248 251 300 332 294 275 nan nan nan nan nan nan nan nan nan nan nan nan nan 50 65 75 72 70 74 89 120 104 94 81 78 73 69 75 86 96 92 100 87 78 78 72 86
nan 129 nan nan nan 70 277 270 293 262 245 300 nan nan nan nan nan nan nan nan nan nan nan nan 47 81 74 104 86 77 85 85 70 88 92 96 88 77 89 95 116 108 105 100 94 87 88 94 95
nan nan nan nan 243 254 274 270 279 283 276 235 nan nan nan nan nan nan nan nan nan nan nan nan 94 117 94 104 96 100 87 101 108 143 126 118 94 2 87 94 18 107 67 nan 98 90 90 79 83
nan nan nan nan 235 234 214 268 248 270 270 203 nan nan nan nan nan nan nan nan nan nan nan 318 126 103 106 119 92 96 98 88 80 nan 95 88 91 92 114 108 102 63 90 92 81 76 98 110 103
nan nan nan nan 290 nan 226 128 292 303 308 307 315 nan nan nan nan nan nan nan nan nan nan 320 88 135 142 117 116 105 89 102 101 90 82 96 84 95 100 76 71 84 74 53 69 56 84 84 94
nan nan nan nan 353 292 317 171 nan nan 289 295 322 nan nan nan nan nan nan nan nan nan 348 3 229 137 152 130 124 118 99 83 94 95 91 100 115 85 93 84 94 68 53 60 66 84 38 61 43
nan 305 258 140 nan nan 225 224 nan 160 280 296 310 322 nan nan nan nan nan nan nan nan 307 22 24 239 156 121 117 122 112 110 88 73 78 92 112 108 98 99 98 94 71 42 74 86 79 29 37
nan nan 300 nan nan nan nan nan nan 144 96 328 317 301 322 nan nan nan nan nan nan nan 304 47 201 231 175 146 132 131 140 132 126 107 115 96 132 147 133 133 119 137 163 153 120 74 64 84 23
nan nan 270 nan nan nan nan nan nan 95 15 352 336 337 343 326 nan nan nan nan nan nan 299 70 271 215 209 155 148 166 140 127 142 165 160 136 155 162 163 193 178 205 222 184 95 118 95 74 120
nan nan 284 nan nan nan nan nan nan 121 16 354 355 3 353 334 nan nan nan nan nan nan 301 2 307 237 217 178 163 172 135 146 185 192 197 167 150 147 127 74 178 162 102 69 36 65 112 189 237
nan nan 308 314 nan nan 336 27 12 36 65 341 355 3 8 346 338 319 312 nan nan nan 303 274 267 270 199 190 167 184 172 163 200 204 191 208 141 146 156 135 102 100 64 63 76 82 82 72 85
nan nan 275 nan nan nan 342 349 29 24 49 321 344 343 5 357 346 328 321 nan nan nan 298 288 280 296 126 188 185 182 189 200 221 211 192 147 119 94 116 116 111 107 65 92 90 95 88 81 74
nan nan nan 337 nan nan nan nan 322 349 347 344 331 340 359 358 351 345 335 334 316 nan 288 294 287 288 88 158 208 194 195 199 203 213 196 167 112 120 108 91 89 131 108 75 76 94 96 86 66
nan nan nan nan nan nan nan nan nan 256 290 7 331 330 350 351 357 354 351 345 338 nan nan 269 269 274 279 189 198 207 180 202 194 221 231 191 154 117 141 141 95 112 92 93 92 89 100 92 91
nan nan nan nan nan nan nan nan 300 327 347 336 321 332 329 333 352 357 352 355 356 322 nan 282 273 260 253 245 240 216 185 176 198 229 217 195 163 146 172 168 139 188 71 82 93 81 88 86 84
nan nan nan 243 nan nan nan nan 269 nan nan 245 309 330 318 322 331 341 346 346 359 346 320 283 281 261 263 262 255 222 206 187 176 238 213 188 186 239 274 275 144 148 94 102 87 99 80 83 83
nan nan nan nan nan nan nan nan 262 nan nan 266 295 291 309 285 307 324 343 341 344 351 332 310 281 270 265 266 246 238 217 203 200 201 206 196 214 234 263 255 210 147 113 82 83 82 80 85 81
nan 228 nan nan 259 216 nan nan nan 262 nan nan 295 294 283 21 332 321 334 341 343 342 334 325 287 271 269 231 245 243 225 220 215 223 205 196 203 248 249 248 224 162 114 78 80 88 91 82 77
nan nan nan nan 186 nan nan nan nan 201 283 nan nan nan 236 nan nan 279 318 323 336 331 334 335 305 275 265 260 244 240 247 229 208 207 220 205 211 219 244 232 229 242 238 82 106 110 70 69 71
nan nan nan nan 225 nan 203 nan nan nan nan nan nan 256 nan nan nan 227 293 304 321 326 330 332 324 282 262 261 250 251 248 245 227 207 217 223 209 231 240 233 219 252 251 277 227 147 200 75 47
nan nan nan nan nan nan 192 nan nan nan nan nan nan 237 nan nan nan 244 234 289 308 315 325 331 334 285 257 256 243 251 253 249 242 224 215 233 232 230 236 236 236 235 256 267 281 235 164 150 101